Regional Weather Roundup
Issued by NWS

Home | Current Version | Previous Version | Graphics & Text | Print | Product List | Glossary On
Versions: 1 2 3 4 5 6 7 8 9 10 11 12 13 14 15 16 17 18 19 20 21 22 23 24 25 26 27 28 29 30 31 32 33 34 35 36 37 38 39 40 41 42 43 44 45 46 47 48 49 50
000
ASUS43 KOAX 020302
RWRNE

WEATHER ROUNDUP FOR NEBRASKA
NATIONAL WEATHER SERVICE OMAHA NE
1000 PM CDT WED OCT 01 2014

NOTES: SATELLITE DATA IS BEING USED TO AUGMENT CLOUD COVER ABOVE
       12000 FEET.
       "FAIR" INDICATES FEW OR NO CLOUDS BELOW 12,000 FEET WITH NO
       SIGNIFICANT WEATHER AND/OR OBSTRUCTIONS TO VISIBILITY.

  * THESE STATIONS DO NOT REPORT WEATHER SUCH AS RAIN...SNOW OR FOG.

NEZ001>004-019>022-054>056-020400-
NEBRASKA PANHANDLE

CITY           SKY/WX    TMP DP  RH WIND       PRES   REMARKS
SCOTTSBLUFF    CLOUDY    48  45  89 NW5       30.01R
ALLIANCE       LGT RAIN  48  44  86 N8        30.00R
CHADRON        CLOUDY    50  47  89 E6        29.99R
KIMBALL        MOCLDY    43  41  95 N5        30.00R
SIDNEY         LGT RAIN  46  44  93 NE10      30.01F
$$

NEZ057>060-069>072-079>082-020400-
SOUTHWEST NEBRASKA

CITY           SKY/WX    TMP DP  RH WIND       PRES   REMARKS
NORTH PLATTE   MOCLDY    58  49  72 CALM      29.84R
IMPERIAL       RAIN      51  46  83 NW32G43   29.95R
LEXINGTON      PTCLDY    62  54  76 E8        29.82R
MCCOOK         CLEAR     61  46  57 CALM      29.80R
OGALLALA       RAIN      52  50  92 NW20G30   29.99R
$$

NEZ005>010-023>029-035>040-094-020400-
NORTH CENTRAL NEBRASKA

CITY           SKY/WX    TMP DP  RH WIND       PRES   REMARKS
VALENTINE      CLOUDY    54  48  80 N5        29.93R
AINSWORTH      HVY RAIN  55  49  80 W8        29.93R
BROKEN BOW     CLEAR     63  50  62 NE12      29.83R
O`NEILL        PTCLDY    58  51  78 N7        29.86R
ORD            PTCLDY    60  51  72 N5        29.82R
THEDFORD       LGT RAIN  56  49  77 NW9G20    29.91R
$$

NEZ041-046>049-061>064-073>077-083>087-020400-
SOUTH CENTRAL NEBRASKA

CITY           SKY/WX    TMP DP  RH WIND       PRES   REMARKS
GRAND ISLAND   LGT RAIN  63  58  83 SW7       29.84R
AURORA         TSTM      65  60  84 NE5       29.81R
HASTINGS       MOCLDY    60  56  86 E8        29.81S
HEBRON         PTCLDY    64  58  81 CALM      29.77R
HOLDREGE       PTCLDY    62  54  76 NE7       29.80S
KEARNEY *      CLOUDY    63  55  77 NE13      29.82R VSB 1/4
YORK           LGT RAIN  66  63  88 NE6       29.81R
$$

NEZ011>018-030>034-042>045-020400-
NORTHEAST NEBRASKA

CITY           SKY/WX    TMP DP  RH WIND       PRES   REMARKS
NORFOLK        PTCLDY    63  53  70 CALM      29.82R
ALBION         MOCLDY    62  51  67 N6        29.82R
BLAIR          PTCLDY    67  62  85 E5        29.79S
COLUMBUS *     CLOUDY    68  57  68 NE3       29.83R
FREMONT        MOCLDY    68  63  82 CALM      29.80R
TEKAMAH        PTCLDY    64  61  90 CALM      29.78R
WAYNE          PTCLDY    56  53  91 CALM      29.82R
$$

NEZ050>053-065>068-078-088>093-020400-
SOUTHEAST NEBRASKA

CITY           SKY/WX    TMP DP  RH WIND       PRES   REMARKS
LINCOLN        PTCLDY    66  61  84 N3        29.79R
OMAHA EPPLEY   MOCLDY    66  61  84 E3        29.78S
BEATRICE       MOCLDY    66  62  85 NE5       29.76S FOG
FALLS CITY     MOCLDY    69  66  90 E5        29.75R
NEBRASKA CITY  PTCLDY    64  64  99 NE3       29.78S
PLATTSMOUTH      N/A     64  61  90 NE5       29.78S
$$

NEZ044-045-051>053-067-020400-
OMAHA AREA

CITY           SKY/WX    TMP DP  RH WIND       PRES   REMARKS
OMAHA EPPLEY   MOCLDY    66  61  84 E3        29.78S
BLAIR          PTCLDY    67  62  85 E5        29.79S
FREMONT        MOCLDY    68  63  82 CALM      29.80R
MILLARD        PTCLDY    64  63  96 CALM      29.78S FOG
OFFUTT AFB     PTCLDY    64  64 100 E6        29.77S
PLATTSMOUTH      N/A     64  61  90 NE5       29.78S
WAHOO          FAIR      65  61  87 CALM      29.80R
$$


USA.gov is the U.S. government's official web portal to all federal, state and local government web resources and services.